Date,TemperatureHighF,TemperatureAvgF,TemperatureLowF,DewpointHighF,DewpointAvgF,DewpointLowF,HumidityHigh,HumidityAvg,HumidityLow,PressureMaxIn,PressureMinIn,WindSpeedMaxMPH,WindSpeedAvgMPH,GustSpeedMaxMPH,PrecipitationSumIn
2013-5-1,71.6,64.3,51.2,48.2,45.1,41.8,82,46,26,30.20,30.06,0,-999,0,0.00
2013-5-2,71.7,59.4,45.3,50.5,46.3,39.4,84,63,38,30.25,30.04,0,-999,0,0.00
2013-5-3,69.9,58.5,47.8,49.1,45.3,41.2,84,63,38,30.19,30.00,0,-999,0,0.00
2013-5-4,70.1,58.2,46.0,48.6,44.1,39.1,83,60,36,30.14,29.90,0,-999,0,0.00
2013-5-5,66.3,55.8,46.2,46.3,42.0,38.1,78,61,42,30.07,29.87,0,-999,0,0.00
2013-5-6,61.5,54.8,47.3,56.5,48.7,40.3,89,83,75,30.01,29.85,0,-999,0,0.00
2013-5-7,63.6,60.5,58.2,61.4,58.2,55.8,96,93,89,29.87,29.73,0,-999,0,0.00
2013-5-8,71.0,62.0,57.0,59.8,56.6,53.0,95,84,61,29.79,29.66,0,-999,0,0.00
2013-5-9,75.3,63.6,54.3,61.4,56.3,51.8,94,79,57,29.79,29.66,0,-999,0,0.00
2013-5-10,83.3,68.6,55.0,63.8,58.9,50.9,91,73,43,29.82,29.55,0,-999,0,0.00
2013-5-11,76.6,68.2,63.3,65.4,61.9,55.8,94,82,63,29.66,29.46,0,-999,0,0.00
2013-5-12,66.3,61.0,51.0,56.8,42.3,31.8,75,47,30,29.80,29.52,0,-999,0,0.00
2013-5-13,62.4,53.6,45.1,37.6,33.9,31.0,73,45,25,29.96,29.79,0,-999,0,0.00
2013-5-14,46.4,43.5,40.8,34.6,33.7,32.3,77,72,65,30.01,29.96,0,-999,0,0.00
2013-5-15,83.3,71.4,55.5,67.2,58.7,46.5,85,64,54,29.74,29.37,0,-999,0,0.00
2013-5-16,80.6,72.5,66.0,65.9,61.7,57.1,88,70,55,29.67,29.51,0,-999,0,0.00
2013-5-17,83.3,73.4,60.0,61.8,57.6,53.3,84,56,33,29.87,29.67,0,-999,0,0.00
2013-5-18,69.8,65.0,61.3,57.7,55.9,53.1,86,74,57,30.01,29.87,0,-999,0,0.00
2013-5-19,72.5,64.8,60.4,65.9,61.1,56.1,93,89,80,30.00,29.84,0,-999,0,0.00
2013-5-20,82.0,72.4,65.1,69.8,66.5,63.3,96,83,63,29.89,29.69,0,-999,0,0.00
2013-5-21,87.2,76.3,67.8,73.4,69.0,64.3,95,79,56,29.76,29.58,0,-999,0,0.00
2013-5-22,90.5,77.8,68.9,74.1,69.7,64.8,95,77,48,29.71,29.50,0,-999,0,0.00
2013-5-23,80.2,71.2,67.1,69.5,66.0,63.8,93,85,63,29.66,29.49,0,-999,0,0.00
2013-5-24,67.2,59.8,50.9,64.2,48.1,33.4,91,67,49,29.95,29.51,0,-999,0,0.00
2013-5-25,66.9,56.9,45.3,45.0,38.4,33.3,69,48,33,29.99,29.80,0,-999,0,0.00
2013-5-26,73.4,62.2,50.7,48.3,42.1,35.6,66,44,27,30.00,29.83,0,-999,0,0.00
2013-5-27,70.1,61.7,48.0,51.8,46.9,40.6,82,58,36,30.09,29.91,0,-999,0,0.00
2013-5-28,77.5,66.8,58.4,66.5,58.9,51.1,87,77,65,29.98,29.79,0,-999,0,0.00
2013-5-29,88.8,77.2,64.4,71.0,66.6,61.0,93,70,44,29.87,29.73,0,-999,0,0.00
2013-5-30,92.8,81.3,68.5,72.9,69.1,63.6,86,65,41,29.93,29.77,0,-999,0,0.00
2013-5-31,91.0,81.3,70.5,71.0,67.8,65.2,86,62,39,29.91,29.68,0,-999,0,0.00